Location: Unspecified
(0.0000°N, 0.0000°E)
Time: 02:12:46
(UTC+00:00)

N. Korean satellite - Pass Details

Date: 03 March 2021
Orbit: 451 x 503 km, 97.2° (Epoch: 24 February)

Event Time Altitude Azimuth Distance (km) Brightness Sun altitude
Rises 05:35:38 0° 348° (NNW) 2,541 10.0 -9.0°
Reaches altitude 10° 05:38:00 10° 333° (NNW) 1,673 9.0 -8.4°
Maximum altitude 05:40:51 22° 281° (W) 1,114 7.8 -7.7°
Drops below altitude 10° 05:43:44 10° 228° (SW) 1,697 8.9 -7.0°
Sets 05:46:09 0° 213° (SSW) 2,589 10.0 -6.4°
